Change the Weather History Date:

Friday, October 11, 2013

  Actual Average Record
Temperature  
Mean Temperature 58 °F -  
Max Temperature 71 °F 61 °F 81 °F (1962)
Min Temperature 44 °F 42 °F 27 °F (1964)
Degree Days  
Heating Degree Days 8    
Growing Degree Days 8 (Base 50)    
Moisture  
Dew Point 48 °F    
Average Humidity 79    
Maximum Humidity 100    
Minimum Humidity 53    
Precipitation  
Precipitation 0.00 in - - ()
Sea Level Pressure  
Sea Level Pressure 30.05 in    
Wind  
Wind Speed 2 mph (SE)    
Max Wind Speed 14 mph    
Max Gust Speed -    
Visibility 6 miles    
Events Fog    
Averages and records for this station are not official NWS values.
T = Trace of Precipitation, MM = Missing Value Source: NWS Daily Summary

Daily Weather History Graph

Daily Weather History Graph

Search for Another Location

Airport or City:

Trip Planner

Search our weather history database for the weather conditions in past years. The results will help you decide how hot, cold, wet, or windy it might be!

Date:

Astronomy

Oct. 11, 2013 Rise Set
Actual Time 7:01 AM CDT 6:15 PM CDT
Civil Twilight 6:32 AM CDT 6:44 PM CDT
Nautical Twilight 5:59 AM CDT 7:16 PM CDT
Astronomical Twilight 5:26 AM CDT 7:49 PM CDT
Moon 1:48 PM CDT (10/11) 11:55 PM CDT (10/11)
Length of Visible Light 12h 11m
Length of Day
11h 14m
Waxing Crescent, 47% of the Moon is Illuminated
Oct 11
Waxing Crescent
Oct 11
First Quarter
Oct 18
Full
Oct 26
Last Quarter
Nov 3
New

Hourly Weather History & Observations

Time (CDT) Temp. Dew Point Humidity Pressure Visibility Wind Dir Wind Speed Gust Speed Precip Events Conditions
12:15 AM 48.2 °F 46.4 °F 93% 30.07 in 0.2 mi Calm Calm - N/A Fog Fog
12:35 AM 48.2 °F 46.4 °F 93% 30.07 in 0.2 mi Calm Calm - N/A Fog Fog
12:55 AM 46.4 °F 46.4 °F 100% 30.07 in 0.2 mi Calm Calm - N/A Fog Fog
1:15 AM 46.4 °F 44.6 °F 93% 30.07 in 0.2 mi Calm Calm - N/A Fog Fog
1:55 AM 46.4 °F 46.4 °F 100% 30.07 in 0.2 mi Calm Calm - N/A Fog Fog
2:15 AM 44.6 °F 44.6 °F 100% 30.07 in 0.2 mi Calm Calm - N/A Fog Fog
2:35 AM 46.4 °F 44.6 °F 93% 30.07 in 0.2 mi Calm Calm - N/A Fog Fog
2:55 AM 46.4 °F 44.6 °F 93% 30.07 in 0.8 mi Calm Calm - N/A   Mostly Cloudy
3:15 AM 44.6 °F 42.8 °F 93% 30.07 in 0.2 mi Calm Calm - N/A Fog Fog
3:35 AM 44.6 °F 42.8 °F 93% 30.08 in 3.0 mi Calm Calm - N/A   Clear
3:55 AM 44.6 °F 44.6 °F 100% 30.08 in 3.0 mi Calm Calm - N/A   Clear
4:15 AM 44.6 °F 44.6 °F 100% 30.08 in 2.5 mi Calm Calm - N/A   Clear
4:35 AM 44.6 °F 42.8 °F 93% 30.08 in 4.0 mi Calm Calm - N/A   Clear
4:55 AM 44.6 °F 42.8 °F 93% 30.08 in 3.0 mi Calm Calm - N/A   Clear
5:15 AM 44.6 °F 42.8 °F 93% 30.08 in 1.5 mi Calm Calm - N/A   Mist
5:35 AM 44.6 °F 42.8 °F 93% 30.09 in 0.5 mi Calm Calm - N/A Fog Fog
5:55 AM 44.6 °F 44.6 °F 100% 30.09 in 2.5 mi Calm Calm - N/A   Clear
6:15 AM 44.6 °F 42.8 °F 93% 30.09 in 3.0 mi Calm Calm - N/A   Clear
6:35 AM 44.6 °F 42.8 °F 93% 30.09 in 5.0 mi Calm Calm - N/A   Clear
6:45 AM 46.4 °F 44.6 °F 93% 30.09 in 5.0 mi Calm Calm - N/A   Clear
6:55 AM 44.6 °F 42.8 °F 93% 30.09 in 5.0 mi Calm Calm - N/A   Scattered Clouds
7:45 AM 46.4 °F 44.6 °F 93% 30.08 in 7.0 mi Calm Calm - N/A   Clear
8:45 AM 55.4 °F 51.8 °F 88% 30.09 in 7.0 mi SSE 4.6 mph - N/A   Clear
9:45 AM 64.4 °F 51.8 °F 64% 30.08 in 10.0 mi South 5.8 mph - N/A   Clear
10:45 AM 68.0 °F 53.6 °F 60% 30.08 in 10.0 mi South 8.1 mph - N/A   Clear
11:45 AM 71.6 °F 53.6 °F 53% 30.07 in 10.0 mi SSE 6.9 mph - N/A   Mostly Cloudy
12:45 PM 71.6 °F 53.6 °F 53% 30.06 in 10.0 mi East 9.2 mph - N/A   Scattered Clouds
1:45 PM 71.6 °F 53.6 °F 53% 30.13 in 10.0 mi ESE 8.1 mph - N/A   Clear
2:45 PM 69.8 °F 53.6 °F 56% 30.01 in 10.0 mi ESE 9.2 mph - N/A   Clear
3:45 PM 68.0 °F 53.6 °F 60% 30.01 in 10.0 mi East 13.8 mph - N/A   Clear
4:45 PM 66.2 °F 53.6 °F 64% 30.00 in 10.0 mi ESE 11.5 mph - N/A   Clear
5:45 PM 64.4 °F 51.8 °F 64% 29.99 in 10.0 mi ESE 9.2 mph - N/A   Clear
6:45 PM 62.6 °F 50.0 °F 63% 29.99 in 10.0 mi SE 6.9 mph - N/A   Clear
7:45 PM 62.6 °F 50.0 °F 63% 29.99 in 10.0 mi ESE 9.2 mph - N/A   Clear
8:45 PM 62.6 °F 50.0 °F 63% 29.99 in 10.0 mi SE 8.1 mph - N/A   Clear
9:15 PM 60.8 °F 48.2 °F 63% 29.99 in 10.0 mi ESE 4.6 mph - N/A   Clear
9:35 PM 60.8 °F 48.2 °F 63% 29.99 in 10.0 mi ESE 4.6 mph - N/A   Clear
9:55 PM 60.8 °F 48.2 °F 63% 30.00 in 10.0 mi SSE 3.5 mph - N/A   Clear
10:15 PM 60.8 °F 48.2 °F 63% 30.00 in 10.0 mi SE 4.6 mph - N/A   Clear
10:35 PM 60.8 °F 50.0 °F 68% 29.99 in 10.0 mi SE 4.6 mph - N/A   Clear
10:55 PM 60.8 °F 50.0 °F 68% 29.99 in 10.0 mi SE 8.1 mph - N/A   Clear
11:15 PM 60.8 °F 50.0 °F 68% 29.99 in 10.0 mi SSE 8.1 mph - N/A   Clear
11:35 PM 60.8 °F 50.0 °F 68% 29.99 in 10.0 mi SSE 5.8 mph - N/A   Clear
11:55 PM 60.8 °F 50.0 °F 68% 29.98 in 10.0 mi SSE 6.9 mph - N/A   Clear